Regional Weather Roundup
Issued by NWS Burlington, VT

Home | Current Version | Previous Version | Text Only | Print | Product List | Glossary On
Versions: 1 2 3 4 5 6 7 8 9 10 11 12 13 14 15 16 17 18 19 20 21 22 23 24 25 26 27 28 29 30 31 32 33 34 35 36 37 38 39 40 41 42 43 44 45 46 47 48 49 50
000
ASUS41 KBTV 291410
RWRBTV
VERMONT REGIONAL WEATHER ROUNDUP
NATIONAL WEATHER SERVICE BURLINGTON VT
1000 AM EDT FRI AUG 29 2014

NOTE: "FAIR" INDICATES FEW OR NO CLOUDS BELOW 12,000 FEET WITH NO
SIGNIFICANT WEATHER AND/OR OBSTRUCTIONS TO VISIBILITY.

* THESE REPORTS ARE NOT UNDER NWS QUALITY CONTROL AND/OR DO NOT
  REPORT WEATHER SUCH AS PRECIPITATION AND FOG.

VTZ001>019-291500-
_____VERMONT_____


CITY           SKY/WX    TMP DP  RH WIND       PRES   REMARKS
BURLINGTON     CLOUDY    62  54  74 N7        30.22R
MONTPELIER     PTSUNNY   61  54  77 CALM      30.25R
MORRISVILLE    MOSUNNY   63  53  70 CALM      30.23R
ST. JOHNSBURY*   N/A     62  52  69 MISG      30.18R
MIDDLEBURY*    CLOUDY    64  56  75 NW7       30.21R
RUTLAND*       SUNNY     61  54  77 NW7       30.21R
SPRINGFIELD    SUNNY     65  54  67 VRB6      30.20R
HIGHGATE*      CLOUDY    57  54  91 N3        30.23R
NEWPORT*       PTSUNNY   59  54  83 N10       30.22R
BENNINGTON     MOSUNNY   65  54  67 N5        30.22R
SUTTON*          N/A     63 N/A N/A MISG        N/A

_____LAKE CHAMPLAIN_____


CITY           SKY/WX    TMP DP  RH WIND       PRES   REMARKS
COLCHESTER RF*   N/A     61  54  77 N8          N/A
DIAMOND ISL*     N/A     63  55  77 N13         N/A

$$

NYZ007-026>031-035-052-083-291500-
_____NORTHERN NEW YORK_____


CITY           SKY/WX    TMP DP  RH WIND       PRES   REMARKS
PLATTSBURGH    CLOUDY    62  54  74 N5        30.22R
SARANAC LAKE   PTSUNNY   61  53  75 W6        30.22R
MASSENA        SUNNY     63  56  78 CALM      30.23R
OGDENSBURG*    SUNNY     66  57  72 CALM      30.21S
POTSDAM*       SUNNY     64  57  77 CALM      30.21F
WATERTOWN      SUNNY     65  54  67 CALM      30.22R
FT DRUM        SUNNY     64  51  62 SE2       30.21S
ALBANY         MOSUNNY   67  53  61 N5        30.22R
GLENS FALLS    MOSUNNY   65  53  65 E7        30.21R

$$
NHZ002-005-011-291500-
_____NEW HAMPSHIRE_____


CITY           SKY/WX    TMP DP  RH WIND       PRES   REMARKS
LEBANON        SUNNY     63  51  65 CALM      30.19R
KEENE          SUNNY     63  48  59 N3        30.20R
MT WASHINGTON  PTSUNNY   46  30  53 NE9         N/A
PLYMOUTH       FAIR      67  58  72 W6        30.16R
WHITEFIELD     SUNNY     65  51  60 N6        30.19R

$$

_____REGIONAL QUEBEC LOCATIONS_____


CITY           SKY/WX    TMP DP  RH WIND       PRES   REMARKS
MONTREAL       MOSUNNY   64  45  48 E8        30.23R
QUEBEC CITY    MOSUNNY   59  52  77 SW5       30.23R
SHERBROOKE     SUNNY     61  46  59 NE6       30.22R

_____REGIONAL ONTARIO LOCATIONS_____


CITY           SKY/WX    TMP DP  RH WIND       PRES   REMARKS
OTTAWA         PTSUNNY   64  55  72 E8        30.22R

______KEY______
VSB  - VISIBILITY IN MILES
WCI  - WIND CHILL INDEX
HX   - HEAT INDEX
$$
NNNN


USA.gov is the U.S. government's official web portal to all federal, state and local government web resources and services.